Regional Weather Roundup
Issued by NWS Goodland, KS

Home | Current Version | Previous Version | Graphics & Text | Print | Product List | Glossary Off
Versions: 1 2 3 4 5 6 7 8 9 10 11 12 13 14 15 16 17 18 19 20 21 22 23 24 25 26 27 28 29 30 31 32 33 34 35 36 37 38 39 40 41 42 43 44 45 46 47 48 49 50

000
ASUS43 KGLD 232008
RWRGLD

GOODLAND FORECAST AREA HOURLY WEATHER ROUNDUP
NATIONAL WEATHER SERVICE GOODLAND KS
200 PM MDT MON MAY 23 2016

...OFFICIAL OBSERVATIONS...

CITY           SKY/WX    TMP DP  RH WIND       PRES   REMARKS
GOODLAND KS    SUNNY     75  42  30 NE10G18   29.84F
HILL CITY KS   CLOUDY    76  60  57 SW6       29.79F
IMPERIAL NEB   PTSUNNY   73  37  27 VRB3      29.84F
MCCOOK NEB     SUNNY     76  50  40 VRB3      29.80F
AKRON CO       SUNNY     69  32  25 E7        29.87F
BURLINGTON CO  SUNNY     75  37  25 E12       29.86F
LIMON CO       SUNNY     68  34  28 S17G24    29.90F
$$

...UNOFFICIAL OBSERVATIONS...

CITY           SKY/WX    TMP DP  RH WIND       PRES   REMARKS
COLBY KS       SUNNY     75  54  46 E8        29.84F
LENORA KS        N/A     74  32  21 MISG        N/A
NORTON KS      PTSUNNY   75  54  46 CALM      29.79S
SHARON SPRINGS   N/A     75  47  37 E13G21      N/A
TRIBUNE KS     SUNNY     77  52  41 E17       29.85F
KIT CARSON CO    N/A     74  39  27 MISG        N/A
YUMA CO          N/A     71  34  26 CALM        N/A
$$



USA.gov is the U.S. government's official web portal to all federal, state and local government web resources and services.